#timestamp,LO_Frequency,Hit,StdDev 
1569812415.5,286047002.6,N
1569812435.3,286047004.3,N
1569812455.1,286047003.9,N
1569812475.9,286047007.0,Y
1569812495.7,286047001.8,P
1569812515.6,286047000.2,N
1569812535.4,286047003.9,P
1569812555.2,286047003.3,N
1569812575.1,286046999.7,N
1569812576.0,286046999.7,N
1569812595.8,286047004.1,N
1569812615.6,286047002.0,N
1569812635.5,286047005.9,Y
1569812655.3,286047003.9,P
1569812675.2,286047001.6,N
1569812695.9,286046998.9,N
1569812715.7,286046998.5,N
1569812735.6,286046999.9,N
1569812755.4,286046997.5,N
1569812775.3,286046998.0,N
1569812795.1,286046993.3,Y
1569812796.0,286046993.3,P
1569812815.8,286046995.2,N
1569812835.7,286046997.0,N
1569812855.5,286046999.2,N
1569812875.3,286047000.8,N
1569812895.2,286047001.2,N
1569812915.0,286046999.1,N
1569812915.9,286046999.1,N
1569812935.8,286046998.2,N
1569812955.6,286047000.6,N
1569812975.4,286047004.8,N
1569812995.3,286047005.0,N
1569813015.1,286047005.0,N
1569813035.8,286047008.8,N
1569813055.7,286047010.8,N
1569813075.5,286047006.3,N
1569813095.4,286047006.8,N
1569813115.2,286047007.0,N
1569813135.0,286047007.4,N
1569813135.9,286047007.4,N
1569813155.8,286047007.4,N
1569813175.6,286047007.9,N
1569813195.4,286047007.7,N
1569813215.3,286047011.1,N
1569813235.1,286047012.4,N
1569813255.9,286047008.6,N
1569813275.7,286047008.8,N
1569813295.5,286047006.6,N
1569813315.4,286047008.0,N
1569813335.2,286047007.8,N
1569813355.0,286047010.5,N
1569813355.9,286047010.5,N
1569813375.8,286047007.0,N
1569813395.6,286047006.3,N
1569813415.5,286047010.3,N
1569813435.3,286047010.0,N
1569813455.1,286047013.6,Y
1569813475.9,286047009.4,P
1569813495.7,286047011.7,P
1569813515.5,286047010.6,P
1569813535.4,286047006.5,Y
1569813555.2,286046997.1,P
1569813575.1,286046997.6,N
1569813576.0,286046997.6,N
1569813595.8,286046998.2,N
1569813615.6,286046998.1,N
1569813635.5,286047003.8,N
1569813655.3,286047001.4,N
1569813675.2,286047002.7,N
1569813695.9,286047004.4,N
1569813715.7,286047001.1,N
1569813735.6,286046998.1,N
1569813755.4,286046996.8,N
1569813775.2,286046997.9,N
1569813795.1,286046995.7,N
1569813796.0,286046995.7,N
1569813815.8,286046996.9,N
1569813835.7,286046995.0,N
1569813855.5,286046995.6,N
1569813875.3,286046995.4,N
1569813895.2,286046992.0,N
1569813915.0,286046996.4,N
1569813915.9,286046996.4,N
1569813935.8,286046998.8,N
1569813955.6,286046998.7,N
1569813975.4,286046995.0,N
1569813995.3,286046994.0,N
1569814015.1,286046995.6,N
1569814035.8,286046994.9,N
1569814055.7,286046993.8,N
1569814075.5,286046996.2,N
1569814095.4,286046991.0,Y
1569814115.2,286046993.3,P
1569814135.0,286046997.8,N
1569814135.9,286046997.8,N
1569814155.8,286046994.6,N
1569814175.6,286046996.3,N
1569814195.4,286046994.5,Y
1569814215.3,286046997.9,P
1569814235.1,286046996.4,P
1569814255.9,286047000.3,N
1569814275.7,286047001.6,N
1569814295.5,286047002.9,N
1569814315.4,286047004.1,N
1569814335.2,286047001.7,N
1569814355.1,286046995.0,N
1569814356.0,286046995.0,N
1569814375.8,286046994.9,N
1569814395.6,286046996.8,N
1569814415.5,286046997.2,N
1569814435.3,286046995.8,N
1569814455.1,286046993.7,N
1569814475.9,286046992.0,N
1569814495.7,286046990.1,N
1569814515.6,286046990.2,N
1569814535.4,286046990.7,N
1569814555.2,286046993.3,N
1569814575.1,286046997.9,N
1569814576.0,286046997.9,N
1569814595.8,286046995.9,N
1569814615.7,286046997.3,N
1569814635.5,286047000.7,N
1569814655.3,286047000.9,N
1569814675.2,286047004.3,N
1569814695.0,286047000.2,N
1569814695.9,286047000.2,N
1569814715.7,286047000.7,N
1569814735.6,286046999.9,N
1569814755.4,286047002.2,N
1569814775.3,286047000.3,N
1569814795.1,286046999.0,N
1569814796.0,286046999.0,N
1569814815.8,286047000.9,N
1569814835.7,286047001.0,N
1569814855.5,286046996.7,N
1569814875.4,286046998.4,N
1569814895.2,286046999.9,N
1569814915.0,286047007.2,N
1569814915.9,286047007.2,N
1569814935.8,286047002.9,N
1569814955.6,286047003.9,N
1569814975.4,286047002.4,N
1569814995.3,286046998.9,N
1569815015.1,286046994.9,N
1569815035.9,286047000.1,N
1569815055.7,286047004.1,N
1569815075.5,286046999.7,N
1569815095.4,286047000.1,N
1569815115.2,286047000.2,N
1569815135.1,286046998.3,N
1569815136.0,286046998.3,N
1569815155.8,286047002.5,N
1569815175.6,286047005.1,N
1569815195.5,286047007.2,N
1569815215.3,286047006.1,N
1569815235.1,286047010.1,Y
1569815255.9,286047006.5,P
1569815275.7,286047003.0,N
1569815295.6,286047004.5,N
1569815315.4,286047006.1,Y
1569815335.2,286047004.7,P
1569815355.1,286047007.1,P
1569815356.0,286047007.1,P
1569815375.8,286047008.3,Y
1569815395.7,286047006.0,P
1569815415.5,286047000.2,N
1569815435.3,286046998.2,N
1569815455.2,286046997.3,N
1569815475.0,286046999.1,N
1569815475.9,286046999.1,N
1569815495.7,286047006.0,N
1569815515.6,286047005.2,N
1569815535.4,286047004.5,N
1569815555.3,286047004.6,N
1569815575.1,286047007.1,N
1569815576.0,286047007.1,N
1569815595.8,286047006.5,N
1569815615.7,286047008.8,N
1569815635.5,286047006.5,N
1569815655.3,286047008.1,N
1569815675.2,286047009.0,N
1569815695.0,286047009.1,N
1569815695.9,286047009.1,N
1569815715.8,286047007.1,N
1569815735.6,286047008.6,N
1569815755.4,286047008.1,N
1569815775.3,286047010.4,N
1569815795.1,286047007.1,N
1569815815.9,286047006.6,N
1569815835.7,286047005.7,N
1569815855.5,286047002.2,N
1569815875.4,286047000.1,N
1569815895.2,286047004.3,N
1569815915.1,286047005.0,N
1569815916.0,286047005.0,N
1569815935.8,286047006.2,N
1569815955.6,286047008.0,N
1569815975.5,286047006.2,N
1569815995.3,286047007.6,N
